• In Hungary
  • List of Countries
  • For 7 days
  • Water Temperature
  • Satellite Maps
  • Weather Map
  • News
  • Weather Widgets
  • user-avatar
    Login

    Hourly Weather Dmitrovschina

    Today, 22 October, Monday

    Time Temperature Precipitation Wind Pressure Humidity
    00:00 +3°C° 0 mm 2 mps 746 mmHg 90%
    01:00 +2°C° 0 mm 3 mps 746 mmHg 90%
    02:00 +2°C° 0 mm 3 mps 745 mmHg 89%
    03:00 +2°C° 0 mm 3 mps 745 mmHg 88%
    04:00 +1°C° 0 mm 4 mps 744 mmHg 87%
    05:00 +1°C° 0 mm 4 mps 743 mmHg 87%
    06:00 +1°C° 0 mm 4 mps 743 mmHg 85%
    07:00 +3°C° 0 mm 4 mps 743 mmHg 84%
    08:00 +2°C° 0 mm 5 mps 742 mmHg 82%
    09:00 +3°C° 0 mm 5 mps 742 mmHg 79%
    10:00 +5°C° 0 mm 5 mps 741 mmHg 75%
    11:00 +6°C° 0 mm 5 mps 741 mmHg 72%
    12:00 +7°C° 0 mm 5 mps 740 mmHg 71%
    13:00 +7°C° 0 mm 5 mps 739 mmHg 71%
    14:00 +7°C° 0 mm 5 mps 739 mmHg 70%
    15:00 +7°C° 0.1 mm 5 mps 738 mmHg 72%
    16:00 +7°C° 0.1 mm 5 mps 738 mmHg 74%
    17:00 +6°C° 0.1 mm 5 mps 737 mmHg 76%
    18:00 +6°C° 0.3 mm 5 mps 737 mmHg 78%
    19:00 +6°C° 0.3 mm 5 mps 736 mmHg 80%
    20:00 +6°C° 0.3 mm 5 mps 736 mmHg 82%
    21:00 +6°C° 0.5 mm 4 mps 735 mmHg 85%
    22:00 +6°C° 0.5 mm 4 mps 735 mmHg 87%
    23:00 +6°C° 0.5 mm 4 mps 734 mmHg 89%

    Tomorrow, 23 October, Tuesday

    Time Temperature Precipitation Wind Pressure Humidity
    00:00 +6°C° 0.3 mm 4 mps 734 mmHg 88%
    01:00 +5°C° 0.3 mm 4 mps 734 mmHg 87%
    02:00 +5°C° 0.3 mm 4 mps 734 mmHg 86%
    03:00 +4°C° 0 mm 3 mps 734 mmHg 87%
    04:00 +3°C° 0 mm 3 mps 734 mmHg 87%
    05:00 +2°C° 0 mm 3 mps 734 mmHg 87%
    06:00 +2°C° 0 mm 3 mps 734 mmHg 86%
    07:00 +2°C° 0 mm 3 mps 733 mmHg 86%
    08:00 +3°C° 0 mm 2 mps 733 mmHg 85%
    09:00 +3°C° 0 mm 3 mps 733 mmHg 80%
    10:00 +4°C° 0 mm 3 mps 733 mmHg 75%
    11:00 +5°C° 0 mm 3 mps 733 mmHg 71%
    12:00 +5°C° 0 mm 3 mps 732 mmHg 69%
    13:00 +5°C° 0 mm 3 mps 731 mmHg 68%
    14:00 +6°C° 0 mm 2 mps 731 mmHg 67%
    15:00 +5°C° 0 mm 2 mps 730 mmHg 72%
    16:00 +4°C° 0 mm 2 mps 729 mmHg 77%
    17:00 +4°C° 0 mm 2 mps 729 mmHg 82%
    18:00 +3°C° 0 mm 2 mps 728 mmHg 83%
    19:00 +2°C° 0 mm 3 mps 727 mmHg 84%
    20:00 +2°C° 0 mm 3 mps 726 mmHg 85%
    21:00 +1°C° 0 mm 3 mps 726 mmHg 85%
    22:00 +1°C° 0 mm 3 mps 725 mmHg 85%
    23:00 +1°C° 0 mm 3 mps 724 mmHg 85%

    Day after tomorrow, 24 October, Wednesday

    Time Temperature Precipitation Wind Pressure Humidity
    00:00 +1°C° 0 mm 3 mps 723 mmHg 84%
    01:00 0°C° 0 mm 4 mps 722 mmHg 84%
    02:00 0°C° 0 mm 4 mps 721 mmHg 84%
    03:00 0°C° 0 mm 4 mps 721 mmHg 84%
    04:00 0°C° 0 mm 4 mps 720 mmHg 84%
    05:00 -1°C° 0 mm 4 mps 719 mmHg 84%
    06:00 0°C° 0 mm 4 mps 719 mmHg 83%
    07:00 0°C° 0 mm 4 mps 719 mmHg 83%
    08:00 0°C° 0 mm 5 mps 718 mmHg 82%
    09:00 +1°C° 0.1 mm 5 mps 718 mmHg 79%
    10:00 +1°C° 0.1 mm 4 mps 718 mmHg 76%
    11:00 +3°C° 0.1 mm 4 mps 718 mmHg 73%
    12:00 +3°C° 0.1 mm 4 mps 718 mmHg 72%
    13:00 +3°C° 0.1 mm 4 mps 719 mmHg 71%
    14:00 +4°C° 0.1 mm 4 mps 719 mmHg 71%
    15:00 +3°C° 0.1 mm 4 mps 719 mmHg 73%
    16:00 +3°C° 0.1 mm 4 mps 719 mmHg 75%
    17:00 +3°C° 0.1 mm 4 mps 720 mmHg 77%
    18:00 +3°C° 0.2 mm 4 mps 720 mmHg 79%
    19:00 +1°C° 0.2 mm 4 mps 720 mmHg 80%
    20:00 +1°C° 0.2 mm 4 mps 721 mmHg 82%
    21:00 +1°C° 0.2 mm 4 mps 721 mmHg 83%
    22:00 +2°C° 0.2 mm 3 mps 722 mmHg 85%
    23:00 +2°C° 0.2 mm 3 mps 722 mmHg 86%

    25 October, Thursday

    Time Temperature Precipitation Wind Pressure Humidity
    00:00 +1°C° 0.2 mm 3 mps 722 mmHg 87%
    01:00 +1°C° 0.2 mm 3 mps 723 mmHg 88%
    02:00 +1°C° 0.2 mm 3 mps 723 mmHg 89%
    03:00 +1°C° 0.1 mm 3 mps 723 mmHg 89%
    04:00 +1°C° 0.1 mm 3 mps 723 mmHg 89%
    05:00 +1°C° 0.1 mm 3 mps 724 mmHg 90%
    06:00 0°C° 0 mm 3 mps 724 mmHg 89%
    07:00 -1°C° 0 mm 4 mps 724 mmHg 88%
    08:00 -1°C° 0 mm 4 mps 724 mmHg 87%
    09:00 0°C° 0 mm 4 mps 724 mmHg 83%
    10:00 +1°C° 0 mm 4 mps 724 mmHg 79%
    11:00 +1°C° 0 mm 4 mps 724 mmHg 75%
    12:00 +3°C° 0 mm 4 mps 724 mmHg 73%
    13:00 +3°C° 0 mm 4 mps 724 mmHg 71%
    14:00 +3°C° 0 mm 4 mps 724 mmHg 69%
    15:00 +1°C° 0 mm 4 mps 724 mmHg 74%
    16:00 +1°C° 0 mm 3 mps 724 mmHg 78%
    17:00 0°C° 0 mm 3 mps 724 mmHg 82%
    18:00 0°C° 0 mm 3 mps 724 mmHg 84%
    19:00 0°C° 0 mm 3 mps 723 mmHg 86%
    20:00 -1°C° 0 mm 3 mps 723 mmHg 88%
    21:00 -1°C° 0 mm 3 mps 723 mmHg 89%
    22:00 -1°C° 0 mm 2 mps 723 mmHg 91%
    23:00 -2°C° 0 mm 2 mps 723 mmHg 93%

    26 October, Friday

    Time Temperature Precipitation Wind Pressure Humidity
    00:00 -1°C° 0 mm 2 mps 724 mmHg 93%
    01:00 -1°C° 0 mm 3 mps 724 mmHg 94%
    02:00 -1°C° 0 mm 3 mps 724 mmHg 95%
    03:00 -1°C° 0 mm 3 mps 724 mmHg 94%
    04:00 0°C° 0 mm 3 mps 724 mmHg 93%
    05:00 0°C° 0 mm 3 mps 724 mmHg 91%
    06:00 -1°C° 0 mm 4 mps 724 mmHg 91%
    07:00 -1°C° 0 mm 4 mps 725 mmHg 90%
    08:00 -1°C° 0 mm 4 mps 725 mmHg 89%
    09:00 0°C° 0 mm 4 mps 725 mmHg 87%
    10:00 0°C° 0 mm 4 mps 726 mmHg 86%
    11:00 +1°C° 0 mm 3 mps 726 mmHg 84%
    12:00 +2°C° 0 mm 3 mps 726 mmHg 83%
    13:00 +2°C° 0 mm 3 mps 727 mmHg 82%
    14:00 +2°C° 0 mm 3 mps 727 mmHg 82%
    15:00 +2°C° 0 mm 3 mps 727 mmHg 84%
    16:00 +2°C° 0 mm 3 mps 728 mmHg 86%
    17:00 +3°C° 0 mm 2 mps 728 mmHg 88%
    18:00 +2°C° 0 mm 3 mps 728 mmHg 89%
    19:00 +2°C° 0 mm 3 mps 729 mmHg 89%
    20:00 +1°C° 0 mm 3 mps 729 mmHg 90%
    21:00 +2°C° 0 mm 3 mps 729 mmHg 90%
    22:00 +2°C° 0 mm 3 mps 729 mmHg 91%
    23:00 +2°C° 0 mm 3 mps 729 mmHg 92%

    27 October, Saturday

    Time Temperature Precipitation Wind Pressure Humidity
    00:00 +1°C° 0 mm 3 mps 729 mmHg 93%
    01:00 +1°C° 0 mm 3 mps 730 mmHg 93%
    02:00 +1°C° 0 mm 3 mps 730 mmHg 94%
    03:00 +1°C° 0.1 mm 3 mps 729 mmHg 92%
    04:00 +1°C° 0.1 mm 3 mps 729 mmHg 90%
    05:00 +1°C° 0.1 mm 3 mps 728 mmHg 89%
    06:00 +1°C° 0.6 mm 4 mps 728 mmHg 89%
    07:00 +3°C° 0.6 mm 4 mps 728 mmHg 88%
    08:00 +3°C° 0.6 mm 4 mps 727 mmHg 88%
    09:00 +3°C° 0.3 mm 5 mps 727 mmHg 87%
    10:00 +5°C° 0.3 mm 5 mps 727 mmHg 86%
    11:00 +6°C° 0.3 mm 5 mps 727 mmHg 85%
    12:00 +6°C° 0.2 mm 5 mps 727 mmHg 85%
    13:00 +6°C° 0.2 mm 5 mps 727 mmHg 85%
    14:00 +6°C° 0.2 mm 5 mps 727 mmHg 84%
    15:00 +6°C° 0.2 mm 5 mps 727 mmHg 84%
    16:00 +6°C° 0.2 mm 4 mps 728 mmHg 85%
    17:00 +5°C° 0.2 mm 4 mps 728 mmHg 85%
    18:00 +5°C° 0 mm 4 mps 728 mmHg 86%
    19:00 +5°C° 0 mm 3 mps 728 mmHg 88%
    20:00 +4°C° 0 mm 3 mps 729 mmHg 89%
    21:00 +4°C° 0 mm 3 mps 729 mmHg 90%
    22:00 +4°C° 0 mm 3 mps 729 mmHg 90%
    23:00 +4°C° 0 mm 3 mps 729 mmHg 90%
    Show more